www.pogodaiklimat.ru
ПОГОДА в Малабо
Время
(UTC), дата
01 23.10
02 23.10
03 23.10
04 23.10
05 23.10
06 23.10
07 23.10
08 23.10
09 23.10
10 23.10
11 23.10
12 23.10
13 23.10
14 23.10
15 23.10
18 23.10
21 23.10
00 24.10
01 24.10
02 24.10
03 24.10
04 24.10
05 24.10
06 24.10
07 24.10
08 24.10
09 24.10
10 24.10
11 24.10
12 24.10
13 24.10
14 24.10
15 24.10
16 24.10
18 24.10
21 24.10
00 25.10
01 25.10
02 25.10
03 25.10
04 25.10
05 25.10
06 25.10
07 25.10
08 25.10
09 25.10
10 25.10
11 25.10
12 25.10
13 25.10
14 25.10
15 25.10
18 25.10
21 25.10
03 26.10
04 26.10
06 26.10
07 26.10
08 26.10
09 26.10
10 26.10
11 26.10
12 26.10
13 26.10
14 26.10
15 26.10
18 26.10
21 26.10
00 27.10
02 27.10
03 27.10
05 27.10
06 27.10
09 27.10
12 27.10
15 27.10
18 27.10
21 27.10
00 28.10
01 28.10
02 28.10
03 28.10
04 28.10
05 28.10
06 28.10
09 28.10
12 28.10
13 28.10
14 28.10
15 28.10
17 28.10
18 28.10
21 28.10
00 29.10
01 29.10
02 29.10
03 29.10
04 29.10
05 29.10
06 29.10
07 29.10
08 29.10
09 29.10
11 29.10
12 29.10
13 29.10
15 29.10
16 29.10
17 29.10
18 29.10
19 29.10
20 29.10
21 29.10
00 30.10
Ветер
(напр.,м/с)
Видим. Явления Облачность Т
(С)
Тd
(С)
f
(%)
Тe
(С)
Тes
(С)
Комфортность P
(гПа)
Po
(гПа)
Тmin
(С)
Tmax
(С)
R
(мм)
R24
(мм)
S
(см)
ЮЗ 2 10 км 5/5 300 м +24.0 +24.0 100 +33 +33 очень
душно
1012.0 1009.4
З 3 10 км 5/5 300 м +24.0 +24.0 100 +33 +33 очень
душно
1011.0 1008.4
штиль 0 10 км 5/5 450 м
[Sc]
+24.2 +22.7 91 +32 +32 очень
душно
1012.8 1008.3
З 3 10 км 5/5 300 м +25.0 +25.0 100 +36 +36 очень
душно
1012.0 1009.4
ЮЗ 2 10 км 5/5 300 м +24.0 +24.0 100 +33 +33 очень
душно
1012.0 1009.4
штиль 0 10 км зарница 9/9 300 м
[Cb calv Ac cuf Cs]
+24.5 +23.5 94 +33 +33 очень
душно
1014.0 1009.5 +24.0
В 5 3500 м гроза, ливневой дождь 8/8 270 м +23.0 +23.0 100 +32 +33 очень
душно
1015.0 1012.3
В 5 3500 м гроза, ливневой дождь 8/8 270 м +24.0 +24.0 100 +33 +34 очень
душно
1014.0 1011.4
В 4 9000 м гроза, ливневой дождь 10/6 300 м
[Cb cap As op]
+25.3 +23.4 89 +34 +35 очень
душно
1015.6 1011.1
В 2 8000 м 8/8 270 м +28.0 +23.0 74 +37 +41 очень
душно
1014.0 1011.4
З 2 10 км 8/8 270 м +29.0 +25.0 79 +42 +46 опасность
перегрева
1013.0 1010.4
З 4 10 км {гроза, дождь} 10/5 400 м
[Cu med, cong Ac As]
+29.0 +24.8 78 +41 +43 опасность
перегрева
1013.9 1009.4 14
З 3 10 км 8/8 270 м +28.0 +25.0 84 +40 +43 очень
душно
1012.0 1009.4
З 4 10 км 8/8 240 м +28.0 +25.0 84 +40 +41 очень
душно
1011.0 1008.4
Ю 4 10 км 9/5 400 м
[Cu med, cong Ac As]
+27.3 +25.0 87 +39 +40 очень
душно
1012.0 1007.5
Ю 3 10 км 9/5 400 м
[Sc Ac As]
+26.4 +24.4 89 +37 +37 очень
душно
1012.7 1008.2 +29.5 14
штиль 0 10 км 5/4 420 м
[Sc Ac trans]
+24.7 +24.4 98 +34 +34 очень
душно
1015.3 1010.8
штиль 0 10 км 10/5 400 м
[Sc Ac As]
+25.0 +23.5 91 +34 +34 очень
душно
1013.7 1009.2
нст 1 10 км 2/2 300 м +24.0 +24.0 100 +33 +33 очень
душно
1012.0 1009.4
З 1 10 км 2/2 300 м +24.0 +24.0 100 +33 +33 очень
душно
1011.0 1008.4
штиль 0 10 км 10/5 400 м
[Sc Ac As]
+25.0 +24.3 96 +35 +35 очень
душно
1012.4 1007.9
нст 1 10 км 2/2 300 м +24.0 +24.0 100 +33 +33 очень
душно
1011.0 1008.4
штиль 0 10 км 8/8 300 м +24.0 +24.0 100 +33 +33 очень
душно
1011.0 1008.4
штиль 0 10 км 10/5 400 м
[Cb cap Ac As]
+25.0 +24.6 98 +35 +35 очень
душно
1013.3 1008.8 +23.5 14 14
штиль 0 10 км 5/5 300 м +27.0 +26.0 94 +40 +42 очень
душно
1013.0 1010.4
штиль 0 10 км 8/8 300 м +28.0 +25.0 84 +40 +43 очень
душно
1013.0 1010.4
штиль 0 >70 км слаб. дождь 10/6 360 м
[Cb cap As op]
+26.6 +25.2 92 +38 +40 очень
душно
1014.9 1010.4
В 2 3200 м дождь 8/8 210 м
[Ns]
+25.0 +25.0 100 +36 +39 очень
душно
1013.0 1010.4
СВ 2 10 км 8/8 210 м +28.0 +25.0 84 +40 +44 очень
душно
1013.0 1010.4
СВ 4 10 км в посл. час дождь 9/5 360 м
[Cb cap As op]
+28.0 +25.5 86 +41 +43 опасность
перегрева
1013.0 1008.5 5
В 2 10 км 8/8 300 м +28.0 +25.0 84 +40 +44 очень
душно
1011.0 1008.4
З 3 10 км 8/8 300 м +29.0 +25.0 79 +42 +44 опасность
перегрева
1009.0 1006.4
ЮЗ 3 10 км 8/5 360 м
[Cu med, cong Ac trans]
+28.0 +25.2 85 +41 +43 опасность
перегрева
1011.0 1006.5
З 3 10 км 8/8 300 м +28.0 +25.0 84 +40 +41 очень
душно
1009.0 1006.4
З 4 10 км 6/4 360 м
[Sc Ac trans]
+26.5 +24.7 90 +38 +38 очень
душно
1012.2 1007.7 +29.0 5
Ю 4 10 км 8/5 400 м
[Sc Ac trans]
+25.3 +24.9 98 +36 +36 очень
душно
1014.7 1010.2
ЮЗ 3 10 км 8/5 400 м
[Sc Ac trans]
+24.7 +24.4 98 +34 +34 очень
душно
1013.3 1008.8
ЮЗ 1 10 км 2/2 300 м +23.0 +23.0 100 +32 +32 очень
душно
1011.0 1008.4
ЮЗ 2 10 км 2/2 300 м +23.0 +23.0 100 +32 +32 очень
душно
1011.0 1008.4
ЮЗ 4 10 км 8/5 400 м
[Sc Ac trans]
+24.0 +23.3 96 +32 +32 очень
душно
1011.8 1007.3
ЮЗ 2 10 км 2/2 300 м +22.0 +22.0 100 +29 +29 очень
душно
1011.0 1008.3
З 2 10 км 2/2 300 м +24.0 +24.0 100 +33 +33 очень
душно
1011.0 1008.4
штиль 0 10 км 9/4 400 м
[Cb cap Ac As]
+24.0 +22.7 92 +31 +32 очень
душно
1012.4 1007.9 +22.5 5 5
штиль 0 10 км 2/2 300 м +25.0 +25.0 100 +36 +39 очень
душно
1012.0 1009.4
ЮЗ 2 10 км 2/2 300 м +29.0 +25.0 79 +42 +48 опасность
перегрева
1013.0 1010.4
штиль 0 10 км 6/4 400 м
[Cb cap Ac cuf]
+30.0 +25.1 75 +43 +51 опасность
перегрева
1013.8 1009.3
З 3 10 км 2/2 300 м +30.0 +25.0 75 +43 +55 опасность
перегрева
1012.0 1009.4
З 3 10 км 8/8 300 м +28.0 +26.0 89 +42 +45 опасность
перегрева
1011.0 1008.4
З 4 10 км в посл. час дождь 10/6 360 м
[Cb cap Ac As]
+28.0 +26.6 92 +43 +45 опасность
перегрева
1011.7 1007.2 2
Ю 3 8000 м 8/8 300 м +26.0 +26.0 100 +39 +41 очень
душно
1010.0 1007.4
ЮЗ 3 8000 м 8/8 210 м +27.0 +27.0 100 +42 +44 опасность
перегрева
1009.0 1006.4
З 4 10 км в посл. час дождь 9/5 400 м
[Cb cap Ac As]
+28.5 +25.4 83 +42 +43 опасность
перегрева
1010.2 1005.7
С 4 10 км {дождь} 9/5 400 м
[Sc Ac As]
+26.8 +24.2 86 +37 +37 очень
душно
1011.7 1007.2 +30.0 5
З 4 10 км 6/4 450 м
[Sc Ac trans]
+26.5 +25.1 92 +38 +38 очень
душно
1013.4 1008.9
штиль 0 10 км 6/4 450 м
[Sc Ac trans]
+25.0 +25.0 100 +36 +36 очень
душно
1011.7 1007.2
ЮЗ 3 10 км 5/5 300 м +24.0 +24.0 100 +33 +33 очень
душно
1010.0 1007.4
З 2 10 км гроза без осадков 6/6 450 м
[Cb cap Ac trans]
+26.0 +24.6 92 +37 +37 очень
душно
1012.4 1007.9 +24.0 5 5
ЮЗ 2 10 км 5/5 300 м +27.0 +26.0 94 +40 +42 очень
душно
1012.0 1009.4
ЮЗ 3 10 км 2/2 300 м +29.0 +25.0 79 +42 +47 опасность
перегрева
1012.0 1009.4
ЮЗ 4 10 км 6/4 450 м
[Cu med, cong Ac trans]
+30.0 +25.8 78 +45 +49 опасность
перегрева
1013.5 1009.0
З 5 8000 м слаб. дождь 5/5 270 м
[Ns]
+29.0 +25.0 79 +42 +46 опасность
перегрева
1012.0 1009.4
ЮЗ 4 6000 м гроза, ливневой дождь 8/8 270 м
[Cb]
+27.0 +27.0 100 +42 +45 опасность
перегрева
1011.0 1008.4
ЮЗ 4 4000 м сильн. дождь {гроза} 10/6 360 м
[Cb cap As op]
+26.5 +23.6 84 +36 +37 очень
душно
1012.3 1007.8 18
ЮЗ 2 1200 м гроза, ливневой дождь 10/10 210 м
[Cb]
+23.0 +23.0 100 +32 +32 очень
душно
1010.0 1007.4
Ю 4 8000 м гроза, ливневой дождь 8/8 210 м
[Cb]
+23.0 +23.0 100 +32 +34 очень
душно
1009.0 1006.4
ЮЗ 4 10 км гроза, ливневой дождь 10/4 600 м
[Cb cap As op]
+23.5 +23.1 98 +31 +32 очень
душно
1009.5 1005.0
штиль 0 10 км {гроза, дождь} 9/5 400 м
[Cb cap Ac As]
+23.5 +22.9 96 +31 +31 очень
душно
1011.2 1006.7 +30.5 77
штиль 0 10 км 8/5 400 м
[Sc Ac trans]
+23.5 +22.8 96 +31 +31 очень
душно
1013.8 1009.3
ЮЗ 1 10 км 8/8 300 м
[Cb calv Ac cuf Ci ing]
+23.0 +23.0 100 +32 +32 очень
душно
1011.0 1008.4
штиль 0 10 км 2/2 300 м +22.0 +22.0 100 +29 +29 очень
душно
1010.0 1007.3
штиль 0 10 км 8/4 400 м
[Sc Ac trans]
+23.0 +22.3 96 +31 +31 очень
душно
1011.0 1006.5
ЮЗ 2 10 км 2/2 300 м +23.0 +23.0 100 +32 +32 очень
душно
1010.0 1007.4
штиль 0 10 км 8/4 400 м
[Sc Ac trans]
+24.0 +22.5 91 +31 +32 очень
душно
1012.3 1007.8 +22.5 77 77
штиль 0 10 км 9/5 400 м
[Cu med, cong Ac As]
+28.5 +25.3 83 +42 +45 опасность
перегрева
1013.7 1009.2
штиль 0 8000 м гроза, ливневой дождь 10/8 360 м
[Cb cap As op]
+24.5 +24.1 98 +34 +35 очень
душно
1012.2 1007.7 11
ЮЗ 3 10 км гроза без осадков 8/5 60 м
[Cb cap Ac As]
+25.4 +23.4 89 +34 +36 очень
душно
1009.4 1004.9
штиль 0 10 км {гроза, дождь} 8/5
[Sc Ac trans]
+24.5 +23.8 96 +33 +33 очень
душно
1009.8 1005.3 +30.0 12
штиль 0 10 км 10/5 400 м
[Sc Ac As]
+24.0 +23.9 99 +33 +33 очень
душно
1013.0 1008.5
штиль 0 10 км 10/5 400 м
[Sc Ac As]
+24.2 +23.8 98 +33 +33 очень
душно
1011.8 1007.3
ЮЗ 2 10 км 5/5 300 м +24.0 +24.0 100 +33 +33 очень
душно
1010.0 1007.4
ЮЗ 2 10 км 5/5 300 м +24.0 +24.0 100 +33 +33 очень
душно
1010.0 1007.4
ЮЗ 3 10 км 10/5 400 м
[Sc Ac As]
+24.5 +23.8 96 +33 +33 очень
душно
1010.6 1006.1
0 10 км 5/5 300 м +24.0 +24.0 100 +33 +33 очень
душно
1010.0 1007.4
ЮЗ 2 10 км 5/5 300 м +23.0 +23.0 100 +32 +32 очень
душно
1010.0 1007.4
штиль 0 10 км 10/6 400 м
[Cb cap Ac As]
+24.2 +23.6 96 +33 +33 очень
душно
1012.0 1007.5 +23.5 12
СВ 5 6000 м гроза, ливневой дождь 10/6 300 м
[Cb cap As op]
+24.6 +23.0 91 +33 +33 очень
душно
1013.9 1009.4
штиль 0 10 км гроза, ливневой дождь 10/6 400 м
[Cb cap As op]
+27.2 +24.0 83 +38 +40 очень
душно
1012.0 1007.5 21
З 3 8000 м 2/2 300 м +27.0 +25.0 89 +39 +50 очень
душно
1009.0 1006.4
З 4 8000 м 5/5 300 м +26.0 +25.0 94 +37 +41 очень
душно
1008.0 1005.4
З 3 10 км в посл. час гроза {дождь} 8/5 400 м
[Cb cap Ac cuf]
+26.3 +24.4 89 +37 +38 очень
душно
1010.2 1005.7
ЮЗ 2 10 км 2/2 300 м +26.0 +25.0 94 +37 +37 очень
душно
1010.0 1007.4
ЮЗ 2 10 км 5/5 300 м +25.0 +25.0 100 +36 +36 очень
душно
1011.0 1008.4
штиль 0 10 км 10/6 400 м
[Sc Ac As]
+25.0 +24.1 95 +34 +34 очень
душно
1014.7 1010.2
ЮЗ 2 10 км 5/5 300 м +24.0 +24.0 100 +33 +33 очень
душно
1012.0 1009.4
ЮЗ 2 10 км 5/5 300 м +24.0 +24.0 100 +33 +33 очень
душно
1011.0 1008.4
нст 1 10 км 5/5 300 м +24.0 +24.0 100 +33 +33 очень
душно
1011.0 1008.4
штиль 0 10 км 10/6 400 м
[Sc Ac As]
+24.0 +23.3 96 +32 +32 очень
душно
1012.3 1007.8
нст 1 10 км 5/5 300 м +24.0 +24.0 100 +33 +33 очень
душно
1011.0 1008.4
0 10 км 5/5 300 м +24.0 +24.0 100 +33 +33 очень
душно
1012.0 1009.4
ЮЗ 2 10 км 5/5 300 м +24.0 +24.0 100 +33 +33 очень
душно
1012.0 1009.4
0 10 км 8/8 300 м +26.0 +26.0 100 +39 +39 очень
душно
1013.0 1010.4
В 2 10 км 5/5 300 м +28.0 +25.0 84 +40 +44 очень
душно
1013.0 1010.4
ЮЗ 4 10 км слаб. дождь 9/5 400 м
[Sc Ac As]
+28.0 +25.2 85 +41 +43 опасность
перегрева
1015.0 1010.5
В 4 н/о гроза, ливневой дождь 8/8 300 м
[Cb]
+25.0 +25.0 100 +36 +38 очень
душно
1013.0 1010.4
штиль 0 8000 м слаб. дождь 10/6 330 м
[Sc As op]
+25.2 +24.8 98 +36 +38 очень
душно
1013.4 1008.9 13
З 3 8000 м гроза, ливневой дождь 8/8 300 м
[Cb]
+25.0 +25.0 100 +36 +38 очень
душно
1011.0 1008.4
штиль 0 10 км {дождь} 10/6 400 м
[Sc Ac trans]
+25.0 +24.7 98 +35 +37 очень
душно
1011.6 1007.1
ЮЗ 2 10 км 8/8 240 м +26.0 +26.0 100 +39 +39 очень
душно
1010.0 1007.4
З 1 10 км 8/8 240 м +25.0 +25.0 100 +36 +36 очень
душно
1011.0 1008.4
штиль 0 10 км {дождь} 5/4 400 м
[Sc Ac trans]
+25.0 +23.7 93 +34 +34 очень
душно
1012.7 1008.2 +28.0 13
ЮЗ 1 10 км 2/2 300 м +24.0 +24.0 100 +33 +33 очень
душно
1012.0 1009.4
0 10 км 5/5 300 м +23.0 +23.0 100 +32 +32 очень
душно
1013.0 1010.4
штиль 0 10 км 8/5 420 м
[Sc Ac trans]
+24.0 +24.0 100 +33 +33 очень
душно
1014.4 1009.9
З 1 10 км 5/5 300 м +24.0 +24.0 100 +33 +33 очень
душно
1011.0 1008.4
Местоположение метеостанции Малабо (Экваториальная Гвинея): широта 3.76 долгота 8.71 высота над уровнем моря 23 м.
В архиве по умолчанию представлена погода в Малабо за последнюю неделю. Архивные данные за месяц целиком и за предыдущие месяцы, начиная с января 2011 года, Вы можете получить, выбрав интересующий диапазон дат из раскрывающегося списка и нажав кнопку "Найти!".
*Определитесь, кто Вы:
Внимание! Время в таблицах - всемирное. Для получения местного времени необходимо прибавить поправку, которая равна 1 ч.
Смотрите также архив погоды в соседних городах и на ближайших метеорологических станциях:
Партнеры нашего сайта:      
Пояснения к столбцам:
  • Ветер - указаны скорость ветра в м/с - средняя за 10 мин, порывы в срок и между сроками (в фигурных скобках) и направление, откуда дует ветер: С - северный,
  • СВ - северо-восточный, В - восточный, ЮВ - юго-восточный, Ю - южный, ЮЗ - юго-западный, З - западный, СЗ - северо-западный.
  • Видимость - горизонтальная дальность видимости в метрах или километрах. При видимости от 1 до 10 км при отсутствии осадков обычно наблюдается дымка, при ухудшении видимости до 1 км и менее - туман. В сухую погоду видимость может ухудшаться дымом, пылью или мглою.
  • Явления - указаны атмосферные явления, наблюдавшиеся в срок или в последний час перед сроком; фигурными скобками обозначены явления, наблюдавшиеся между сроками (за 1-3 часа до срока); квадратными скобками обозначены град или гололедные отложения с указанием их диаметра в мм.
  • Облачность - указаны через наклонную черту общая и нижняя облачность в баллах и высота нижней границы облаков в метрах; квадратными скобками обозначены формы облаков: Ci - перистые, Cs - перисто-слоистые, Cc - перисто-кучевые, Ac - высококучевые, As - высокослоистые, Sc - слоисто-кучевые, Ns - слоисто-дождевые, Cu - кучевые, Cb - кучево-дождевые. Подробнее классификацию облаков см. в Атласе облаков (PDF).
  • T - Температура воздуха - температура, измеренная на высоте 2 м над землей.
  • Td - Температура точки росы - температура, при понижении до которой содержащийся в воздухе водяной пар достигнет насыщения.
  • f - Относительная влажность воздуха - влажноcть воздуха, измеренная на высоте 2 м над землей.
  • Te - Эффективная температура - температура, которую ощущает одетый по сезону человек в тени. Характеристика душности погоды. При расчете учитывается влияние влажности воздуха и скорости ветра на теплоощущения человека.
  • Tes - Эффективная температура на солнце - температура, которую ощущает человек, с поправкой на солнечный нагрев. Характеристика знойности погоды. Зависит от высоты солнца над горизонтом, облачности и скорости ветра. Ночью, в пасмурную погоду, а также при ветре 12 м/с и более поправка равна нулю.
  • P - Атмосферное давление - приведенное к уровню моря атмосферное давление.
  • Po - Атмосферное давление - измеренное на уровне метеостанции атмосферное давление.
  • Tmin - Минимальная температура - минимум температуры воздуха на высоте 2 м над землей.
  • Tmax - Максимальная температура - максимум температуры воздуха на высоте 2 м над землей.
  • R - Количество осадков - Количество выпавших осадков за период времени, мм. При наведении курсора мыши на число - период времени, за который выпало указанное количество осадков.
  • R24 - Количество осадков - Количество выпавших осадков за 24 часа, мм.
  • S - Снежный покров - Высота снежного покрова, см. При наведении курсора мыши на число - состояние снежного покрова и степень покрытия местности в баллах.